Tracking 23726 objects as of 24-Sep-2021
HD Live streaming from Space Station
objects crossing your sky now

BRAZILSAT B2

Track BRAZILSAT B2 now!
BRAZILSAT B2 is classified as:


NORAD ID: 23536
Int'l Code: 1995-016A
Perigee: 36,072.3 km
Apogee: 36,098.8 km
Inclination: 9.4 °
Period: 1,451.0 minutes
Semi major axis: 42456 km
RCS: 7.5458 m2 (large)
Launch date: March 28, 1995
Source: Brazil (BRAZ)
Launch site: FRENCH GUIANA (FRGUI)

24 C-band; several X-band.
aabbcc
Your satellite tracking list
Your tracking list is empty




NASA's NSSDC Master Catalog

Two Line Element Set (TLE):
1 23536U 95016A   21266.56422953  .00000010  00000-0  00000-0 0  9994
2 23536   9.3730  42.7167 0003119 103.8157 265.0818  0.99239713 96951
Source of the keplerian elements: AFSPC